Location: Ferchesar
(52.6477°N, 12.4298°E)
Time: 10:10:59
(UTC+01:00)

Vanguard 1 - Pass Details

Date: 11 December 2021
Orbit: 652 x 3830 km, 34.2° (Epoch: 24 January)

Event Time Altitude Azimuth Distance (km) Brightness Sun altitude
Rises 21:14:36 0° 211° (SSW) 6,128 14.2 -46.4°
Reaches altitude 10° 21:18:49 10° 201° (SSW) 5,529 13.8 -47.0°
Enters shadow 21:22:28 18° 191° (S) 5,146 13.5 -47.5°
Maximum altitude 21:33:39 32° 147° (SSE) 4,929 - -48.9°
Drops below altitude 10° 21:52:08 10° 95° (E) 6,919 - -51.3°
Sets 21:58:15 0° 87° (E) 7,824 - -52.0°
